Location: Gleizolles
(44.4833°N, 6.7667°E)
Time: 13:39:42
(UTC+00:00)

Vanguard 1 - Pass Details

Date: 01 July 2024
Orbit: 650 x 3826 km, 34.3° (Epoch: 15 July)

Event Time Altitude Azimuth Distance (km) Brightness Sun altitude
Rises 06:14:21 0° 207° (SSW) 7,695 14.3 22.4°
Reaches altitude 10° 06:21:37 10° 195° (SSW) 6,286 14.0 23.7°
Maximum altitude 06:34:20 23° 152° (SSE) 4,226 13.7 25.9°
Drops below altitude 10° 06:43:12 10° 106° (ESE) 4,281 14.7 27.5°
Sets 06:46:50 0° 92° (E) 4,836 14.8 28.1°
